DW1114 Weather Reports


Display with metric or nautical units.
time (UTC)temp
F
wind
direction
speed
MPH
gust
MPH
rain 1hr
in
rain 24hr
in
rain mn
in
humidity
%
barometer
mb
20260901160903 88 299 2.0 9.0 0.00 0.00 0.00 1018.0
20260901160403 88 273 2.0 9.0 0.00 0.00 0.00 1017.6
20260901155903 88 248 3.0 9.0 0.00 0.00 0.00 1017.6
20260901155402 87 275 3.0 9.0 0.00 0.00 0.00 1017.3
20260901154903 87 227 1.0 10.0 0.00 0.00 0.00 1018.0
20260901154402 87 279 6.0 10.0 0.00 0.00 0.00 1018.0
20260901153903 87 250 3.0 7.0 0.00 0.00 0.00 1018.0
20260901153402 87 199 2.0 12.0 0.00 0.00 0.00 1017.6
20260901152903 86 240 3.0 12.0 0.00 0.00 0.00 1018.0
20260901152403 86 280 6.0 10.0 0.00 0.00 0.00 1017.6
20260901151903 86 290 4.0 12.0 0.00 0.00 0.00 1017.3
20260901151403 85 284 3.0 12.0 0.00 0.00 0.00 1017.3
20260901150903 86 229 2.0 9.0 0.00 0.00 0.00 1017.3
20260901150403 85 263 2.0 12.0 0.00 0.00 0.00 1017.6
20260901145903 85 214 2.0 12.0 0.00 0.00 0.00 1018.0
20260901145445 85 284 3.0 9.0 0.00 0.00 0.00 1017.6
20260901144903 85 276 3.0 9.0 0.00 0.00 0.00 1018.0
20260901144402 84 268 4.0 9.0 0.00 0.00 0.00 1017.6
20260901143903 84 270 4.0 9.0 0.00 0.00 0.00 1017.6
20260901143403 83 196 3.0 11.0 0.00 0.00 0.00 1017.6
20260901142903 83 259 4.0 13.0 0.00 0.00 0.00 1017.3
20260901142403 83 282 5.0 13.0 0.00 0.00 0.00 1018.0
20260901141903 83 271 6.0 12.0 0.00 0.00 0.00 1018.3
20260901141403 82 262 4.0 12.0 0.00 0.00 0.00 1018.0
20260901140944 82 222 3.0 11.0 0.00 0.00 0.00 1018.0
20260901140403 82 253 2.0 13.0 0.00 0.00 0.00 1018.0
20260901135902 82 260 4.0 13.0 0.00 0.00 0.00 1017.6
20260901135403 82 269 2.0 13.0 0.00 0.00 0.00 1017.6
20260901134903 82 228 2.0 12.0 0.00 0.00 0.00 1018.0
20260901134403 81 272 2.0 12.0 0.00 0.00 0.00 1018.0
20260901133903 81 243 3.0 8.0 0.00 0.00 0.00 1017.6
20260901133403 81 214 0.0 9.0 0.00 0.00 0.00 1017.6
20260901132903 81 264 4.0 12.0 0.00 0.00 0.00 1018.0
20260901132402 81 276 5.0 12.0 0.00 0.00 0.00 1018.0
20260901131903 81 253 2.0 7.0 0.00 0.00 0.00 1018.0
20260901131424 81 267 2.0 6.0 0.00 0.00 0.00 1017.6
20260901130924 81 186 1.0 7.0 0.00 0.00 0.00 1018.0
20260901130403 80 228 2.0 7.0 0.00 0.00 0.00 1017.6
20260901125903 80 203 1.0 9.0 0.00 0.00 0.00 1017.6
20260901125403 80 240 2.0 9.0 0.00 0.00 0.00 1018.0
20260901124903 80 194 2.0 7.0 0.00 0.00 0.00 1018.0
20260901124403 80 186 0.0 4.0 0.00 0.00 0.00 1017.6
20260901123903 80 247 1.0 4.0 0.00 0.00 0.00 1017.3
20260901123403 80 242 2.0 6.0 0.00 0.00 0.00 1017.3
20260901122924 80 237 1.0 6.0 0.00 0.00 0.00 1017.3
20260901122403 79 200 0.0 6.0 0.00 0.00 0.00 1017.6
20260901121903 79 161 0.0 3.0 0.00 0.00 0.00 1017.6
20260901121402 79 195 0.0 3.0 0.00 0.00 0.00 1018.0
20260901120924 78 195 1.0 3.0 0.00 0.00 0.00 1017.6
20260901120403 78 202 1.0 3.0 0.00 0.00 0.00 1017.3
20260901115903 78 224 0.0 5.0 0.00 0.00 0.00 1017.3
20260901115403 78 260 1.0 5.0 0.00 0.00 0.00 1017.0
20260901114902 77 175 0.0 6.0 0.00 0.00 0.00 1017.3
20260901114403 78 210 0.0 6.0 0.00 0.00 0.00 1017.3
20260901113902 77 228 0.0 2.0 0.00 0.00 0.00 1017.0
20260901113403 77 199 0.0 6.0 0.00 0.00 0.00 1017.0
20260901112924 77 190 0.0 6.0 0.00 0.00 0.00 1016.6
20260901112404 77 216 0.0 4.0 0.00 0.00 0.00 1016.6
20260901111903 77 211 0.0 4.0 0.00 0.00 0.00 1016.6
20260901111424 77 199 0.0 6.0 0.00 0.00 0.00 1017.0
20260901110903 77 201 0.0 6.0 0.00 0.00 0.00 1016.3
20260901110424 77 135 0.0 2.0 0.00 0.00 0.00 1016.0
20260901104924 77 209 0.0 6.0 0.00 0.00 0.00 1016.0
20260901104403 77 211 0.0 3.0 0.00 0.00 0.00 1016.0
20260901103903 77 205 0.0 3.0 0.00 0.00 0.00 1016.0
20260901103403 77 200 0.0 5.0 0.00 0.00 0.00 1016.3
20260901102903 77 169 0.0 5.0 0.00 0.00 0.00 1016.0
20260901102403 77 204 0.0 6.0 0.00 0.00 0.00 1016.3
20260901101903 77 200 1.0 6.0 0.00 0.00 0.00 1016.6
20260901101403 78 206 1.0 3.0 0.00 0.00 0.00 1016.6
20260901100925 77 214 0.0 6.0 0.00 0.00 0.00 1016.3
20260901100403 77 115 0.0 6.0 0.00 0.00 0.00 1016.3
20260901095925 77 260 0.0 5.0 0.00 0.00 0.00 1016.0
20260901095403 77 186 0.0 5.0 0.00 0.00 0.00 1016.0
20260901094903 77 209 1.0 3.0 0.00 0.00 0.00 1016.0
20260901094404 77 192 0.0 3.0 0.00 0.00 0.00 1015.6
20260901093904 77 191 1.0 6.0 0.00 0.00 0.00 1016.3
20260901093403 77 209 1.0 6.0 0.00 0.00 0.00 1016.0
20260901092902 77 208 1.0 4.0 0.00 0.00 0.00 1015.6
20260901092403 77 203 2.0 3.0 0.00 0.00 0.00 1015.6
20260901091903 77 200 1.0 5.0 0.00 0.00 0.00 1015.6
20260901090425 76 243 0.0 3.0 0.00 0.00 0.00 1016.0
20260901085902 77 184 0.0 3.0 0.00 0.00 0.00 1016.0
20260901085424 77 203 0.0 4.0 0.00 0.00 0.00 1015.6
20260901084924 77 171 0.0 4.0 0.00 0.00 0.00 1015.6
20260901084402 77 206 0.0 6.0 0.00 0.00 0.00 1015.6
20260901083903 77 162 0.0 6.0 0.00 0.00 0.00 1015.6
20260901083403 77 218 0.0 6.0 0.00 0.00 0.00 1016.0
20260901082903 77 187 0.0 6.0 0.00 0.00 0.00 1016.0
20260901082403 77 200 1.0 5.0 0.00 0.00 0.00 1015.6
20260901081903 77 199 0.0 6.0 0.00 0.00 0.00 1015.3
20260901081424 77 207 0.0 6.0 0.00 0.00 0.00 1015.6
20260901080902 77 193 0.0 6.0 0.00 0.00 0.00 1015.6
20260901080403 77 202 0.0 6.0 0.00 0.00 0.00 1015.6
20260901075902 77 209 0.0 6.0 0.00 0.00 0.00 1015.6
20260901075403 77 184 0.0 6.0 0.00 0.00 0.00 1015.6
20260901074903 77 191 0.0 6.0 0.00 0.00 0.00 1015.3
20260901074402 77 226 1.0 6.0 0.00 0.00 0.00 1015.6
20260901073903 77 243 0.0 6.0 0.00 0.00 0.00 1015.6
20260901073402 77 200 0.0 6.0 0.00 0.00 0.00 1015.6
20260901072903 77 200 0.0 6.0 0.00 0.00 0.00 1015.6
20260901072403 77 202 0.0 6.0 0.00 0.00 0.00 1015.6
20260901071903 77 193 1.0 6.0 0.00 0.00 0.00 1015.6
20260901071403 77 248 0.0 2.0 0.00 0.00 0.00 1015.6
20260901070903 77 270 0.0 2.0 0.00 0.00 0.00 1016.3
20260901070403 78 232 0.0 2.0 0.00 0.00 0.00 1016.0
20260901065903 78 254 0.0 6.0 0.00 0.00 0.00 1015.6
20260901065403 78 240 1.0 6.0 0.00 0.00 0.00 1015.6
20260901064903 78 202 0.0 6.0 0.00 0.00 0.00 1016.3
20260901064403 78 270 0.0 6.0 0.00 0.00 0.00 1016.0
20260901063903 78 269 0.0 2.0 0.00 0.00 0.00 1016.0
20260901063404 78 202 0.0 5.0 0.00 0.00 0.00 1015.3
20260901062903 79 198 0.0 6.0 0.00 0.00 0.00 1016.0
20260901062402 79 310 0.0 6.0 0.00 0.00 0.00 1015.6
20260901060902 79 218 0.0 2.0 0.00 0.00 0.00 1015.6
20260901060403 79 173 0.0 3.0 0.00 0.00 0.00 1015.3
20260901055902 79 195 0.0 3.0 0.00 0.00 0.00 1015.6
20260901055403 79 190 0.0 3.0 0.00 0.00 0.00 1015.3
20260901054902 79 194 0.0 3.0 0.00 0.00 0.00 1015.3
20260901054403 79 199 0.0 4.0 0.00 0.00 0.00 1015.3
20260901053903 79 191 1.0 4.0 0.00 0.00 0.00 1015.3
20260901053403 80 182 2.0 3.0 0.00 0.00 0.00 1015.3
20260901052924 80 187 2.0 3.0 0.00 0.00 0.00 1015.6
20260901052403 80 190 1.0 3.0 0.00 0.00 0.00 1016.0
20260901051903 80 186 2.0 3.0 0.00 0.00 0.00 1015.6
20260901051424 80 190 2.0 4.0 0.00 0.00 0.00 1015.3
20260901050903 80 200 2.0 4.0 0.00 0.00 0.00 1015.6
20260901050403 80 203 2.0 6.0 0.00 0.00 0.00 1016.0
20260901045903 80 165 0.0 6.0 0.00 0.00 0.00 1016.0
20260901045403 80 217 1.0 6.0 0.00 0.00 0.00 1016.3
20260901044903 80 185 1.0 3.0 0.00 0.00 0.00 1016.3
20260901044403 80 177 1.0 3.0 0.00 0.00 0.00 1016.0
20260901043904 81 185 2.0 3.0 0.00 0.00 0.00 1016.0
20260901043403 80 185 1.0 2.0 0.00 0.00 0.00 1016.0
20260901042903 80 186 1.0 4.0 0.00 0.00 0.00 1016.3
20260901042424 80 196 1.0 5.0 0.00 0.00 0.00 1015.6
20260901041902 80 194 3.0 5.0 0.00 0.00 0.00 1016.0
20260901041403 80 198 2.0 4.0 0.00 0.00 0.00 1016.0
20260901040903 80 190 2.0 3.0 0.00 0.00 0.00 1016.0
20260901040403 80 188 2.0 3.0 0.00 0.00 0.00 1016.6
20260901035903 80 198 0.0 5.0 0.00 0.00 0.00 1015.6
20260901035424 80 187 0.0 6.0 0.00 0.00 0.00 1016.6
20260901034903 80 198 0.0 6.0 0.00 0.00 0.00 1016.6
20260901034402 80 193 0.0 4.0 0.00 0.00 0.00 1016.0
20260901033903 80 165 0.0 3.0 0.00 0.00 0.00 1016.3
20260901033404 80 185 0.0 4.0 0.00 0.00 0.00 1016.3
20260901032903 80 194 0.0 4.0 0.00 0.00 0.00 1016.3
20260901032403 80 191 0.0 6.0 0.00 0.00 0.00 1016.6
20260901031903 80 201 0.0 6.0 0.00 0.00 0.00 1016.3
20260901031424 80 191 0.0 6.0 0.00 0.00 0.00 1016.6
20260901030923 80 172 0.0 6.0 0.00 0.00 0.00 1017.0
20260901030403 80 180 0.0 6.0 0.00 0.00 0.00 1017.3
20260901025903 80 195 0.0 1.0 0.00 0.00 0.00 1016.6
20260901025403 80 203 0.0 6.0 0.00 0.00 0.00 1016.6
20260901024903 80 195 0.0 6.0 0.00 0.00 0.00 1016.3
20260901024402 80 193 0.0 6.0 0.00 0.00 0.00 1017.0
20260901022902 81 202 0.0 6.0 0.00 0.00 0.00 1017.0
20260901022424 80 179 2.0 6.0 0.00 0.00 0.00 1016.6
20260901021903 80 168 1.0 6.0 0.00 0.00 0.00 1016.6
20260901021403 81 178 1.0 6.0 0.00 0.00 0.00 1017.0
20260901020923 81 315 0.0 6.0 0.00 0.00 0.00 1017.0
20260901020403 81 203 0.0 6.0 0.00 0.00 0.00 1017.3
20260901015924 81 180 0.0 6.0 0.00 0.00 0.00 1016.3
20260901015403 81 202 0.0 6.0 0.00 0.00 0.00 1016.6
20260901014902 81 248 0.0 0.0 0.00 0.00 0.00 1016.6
20260901014403 82 360 0.0 0.0 0.00 0.00 0.00 1017.3
20260901013903 82 360 0.0 0.0 0.00 0.00 0.00 1017.0
20260901013403 82 248 0.0 0.0 0.00 0.00 0.00 1016.6
20260901012903 82 203 0.0 6.0 0.00 0.00 0.00 1017.0
20260901012424 82 180 0.0 6.0 0.00 0.00 0.00 1016.6
20260901011903 82 180 0.0 0.0 0.00 0.00 0.00 1016.6
20260901011403 82 158 0.0 0.0 0.00 0.00 0.00 1016.6
20260901010903 82 360 0.0 0.0 0.00 0.00 0.00 1017.3
20260901010403 82 293 0.0 0.0 0.00 0.00 0.00 1016.6
20260901005903 82 270 0.0 0.0 0.00 0.00 0.00 1016.3
20260901005403 82 248 0.0 0.0 0.00 0.00 0.00 1016.3
20260901003903 83 225 0.0 0.0 0.00 0.00 0.00 1016.3
20260901003424 84 225 0.0 0.0 0.00 0.00 0.00 1016.6
20260901002924 84 203 0.0 0.0 0.00 0.00 0.00 1016.6
20260901002402 84 270 0.0 0.0 0.00 0.00 0.00 1016.6
20260901001903 85 360 0.0 0.0 0.00 0.00 0.00 1016.6
20260901001402 85 360 0.0 0.0 0.00 0.00 0.00 1017.0
20260901000903 86 338 0.0 0.0 0.00 0.00 0.00 1016.6
20260901000424 86 360 0.0 0.0 0.00 0.00 0.00 1016.6
20260831235903 86 135 0.0 6.0 0.00 0.00 0.00 1016.0
20260831235403 86 238 0.0 6.0 0.00 0.00 0.00 1016.0
20260831234903 87 299 0.0 6.0 0.00 0.00 0.00 1016.6
20260831233402 88 215 1.0 6.0 0.00 0.00 0.00 1016.0
20260831232903 88 266 1.0 4.0 0.00 0.00 0.00 1016.0
20260831232403 89 276 2.0 10.0 0.00 0.00 0.00 1016.3
20260831231903 88 264 1.0 10.0 0.00 0.00 0.00 1016.0
20260831231403 89 283 1.0 8.0 0.00 0.00 0.00 1016.3
20260831230902 88 265 1.0 8.0 0.00 0.00 0.00 1016.0
20260831230424 88 259 0.0 5.0 0.00 0.00 0.00 1016.0
20260831225903 89 223 1.0 6.0 0.00 0.00 0.00 1015.6
20260831225402 89 280 3.0 6.0 0.00 0.00 0.00 1016.0
20260831224903 89 258 0.0 12.0 0.00 0.00 0.00 1016.3
20260831224403 88 274 4.0 12.0 0.00 0.00 0.00 1016.0
20260831223903 88 279 1.0 7.0 0.00 0.00 0.00 1016.0
20260831223402 88 274 4.0 10.0 0.00 0.00 0.00 1015.6
20260831222924 88 280 5.0 10.0 0.00 0.00 0.00 1015.6
20260831222402 89 281 1.0 8.0 0.00 0.00 0.00 1015.3
20260831221903 89 207 2.0 7.0 0.00 0.00 0.00 1016.0
20260831221402 90 206 2.0 10.0 0.00 0.00 0.00 1015.3
20260831220903 90 272 4.0 10.0 0.00 0.00 0.00 1015.3
20260831220403 91 270 2.0 6.0 0.00 0.00 0.00 1015.6
20260831215903 91 266 1.0 6.0 0.00 0.00 0.00 1015.3
20260831215403 91 250 2.0 6.0 0.00 0.00 0.00 1015.3
20260831214925 90 209 2.0 7.0 0.00 0.00 0.00 1014.9
20260831214403 90 200 4.0 7.0 0.00 0.00 0.00 1015.3
20260831213903 90 191 3.0 7.0 0.00 0.00 0.00 1014.9
20260831213403 90 197 2.0 8.0 0.00 0.00 0.00 1015.6
20260831212403 90 239 3.0 10.0 0.00 0.00 0.00 1015.6
20260831211903 90 273 4.0 10.0 0.00 0.00 0.00 1016.3
20260831211403 90 226 2.0 9.0 0.00 0.00 0.00 1016.0
20260831210903 91 193 3.0 9.0 0.00 0.00 0.00 1016.3
20260831210425 92 246 2.0 9.0 0.00 0.00 0.00 1016.0
20260831205903 92 275 3.0 9.0 0.00 0.00 0.00 1015.6
20260831205403 91 208 1.0 7.0 0.00 0.00 0.00 1015.6
20260831204903 90 230 0.0 15.0 0.00 0.00 0.00 1016.3
20260831204424 89 264 4.0 15.0 0.00 0.00 0.00 1016.6
20260831203903 89 258 3.0 13.0 0.00 0.00 0.00 1016.3
20260831203403 89 266 4.0 13.0 0.00 0.00 0.00 1016.6
20260831202903 89 286 3.0 12.0 0.00 0.00 0.00 1016.6
20260831201424 89 227 1.0 9.0 0.00 0.00 0.00 1016.3
20260831200902 89 272 2.0 7.0 0.00 0.00 0.00 1016.6
20260831200403 90 265 2.0 4.0 0.00 0.00 0.00 1016.6
20260831195903 90 339 1.0 9.0 0.00 0.00 0.00 1017.3
20260831195423 90 282 2.0 9.0 0.00 0.00 0.00 1017.3
20260831194903 90 309 0.0 8.0 0.00 0.00 0.00 1017.0
20260831194403 91 265 2.0 6.0 0.00 0.00 0.00 1017.3
20260831193903 91 321 2.0 6.0 0.00 0.00 0.00 1017.3
20260831193402 91 294 2.0 9.0 0.00 0.00 0.00 1017.6
20260831192903 90 286 3.0 10.0 0.00 0.00 0.00 1017.3
20260831192402 90 294 6.0 11.0 0.00 0.00 0.00 1017.3
20260831191924 90 301 6.0 11.0 0.00 0.00 0.00 1017.6
20260831191403 90 278 2.0 6.0 0.00 0.00 0.00 1017.6
20260831190903 89 275 3.0 10.0 0.00 0.00 0.00 1017.3
20260831190403 89 283 3.0 10.0 0.00 0.00 0.00 1017.3
20260831185903 89 285 4.0 10.0 0.00 0.00 0.00 1017.3
20260831185403 89 271 4.0 10.0 0.00 0.00 0.00 1017.6
20260831184903 89 257 3.0 10.0 0.00 0.00 0.00 1017.3
20260831184402 89 259 3.0 14.0 0.00 0.00 0.00 1017.6
20260831183924 89 267 6.0 14.0 0.00 0.00 0.00 1017.6
20260831183403 89 275 3.0 14.0 0.00 0.00 0.00 1017.6
20260831182902 89 274 1.0 10.0 0.00 0.00 0.00 1017.6
20260831181402 88 303 4.0 9.0 0.00 0.00 0.00 1018.0
20260831180903 88 276 5.0 9.0 0.00 0.00 0.00 1018.3
20260831180402 88 279 4.0 9.0 0.00 0.00 0.00 1018.0
20260831175924 88 307 2.0 7.0 0.00 0.00 0.00 1018.0
20260831175403 88 268 3.0 7.0 0.00 0.00 0.00 1018.0
20260831174903 88 297 1.0 5.0 0.00 0.00 0.00 1018.3
20260831174403 88 184 2.0 12.0 0.00 0.00 0.00 1018.7
20260831173903 88 258 3.0 12.0 0.00 0.00 0.00 1018.3
20260831173403 88 299 5.0 10.0 0.00 0.00 0.00 1018.7
20260831172903 88 233 4.0 10.0 0.00 0.00 0.00 1018.7
20260831172446 88 248 2.0 10.0 0.00 0.00 0.00 1018.3
20260831171902 88 219 3.0 10.0 0.00 0.00 0.00 1018.7
20260831171424 88 270 2.0 9.0 0.00 0.00 0.00 1018.7
20260831170903 87 292 5.0 10.0 0.00 0.00 0.00 1018.7
20260831170403 87 277 3.0 10.0 0.00 0.00 0.00 1018.7
20260831165903 87 258 4.0 8.0 0.00 0.00 0.00 1018.3
20260831165403 87 185 1.0 7.0 0.00 0.00 0.00 1019.0
20260831164903 87 236 2.0 11.0 0.00 0.00 0.00 1018.7
20260831164403 87 274 2.0 11.0 0.00 0.00 0.00 1019.0
20260831163903 87 224 2.0 8.0 0.00 0.00 0.00 1019.3
20260831163424 87 181 1.0 8.0 0.00 0.00 0.00 1019.0
20260831162903 87 242 0.0 6.0 0.00 0.00 0.00 1018.7
20260831162403 87 197 2.0 10.0 0.00 0.00 0.00 1019.3
20260831161903 86 281 4.0 12.0 0.00 0.00 0.00 1019.0
20260831161424 86 274 6.0 12.0 0.00 0.00 0.00 1019.3